Miscellaneous Local Product
Issued by NWS North Platte, NE

Home | Current Version | Previous Version | Text Only | Print | Product List | Glossary On
Versions: 1 2 3 4 5 6 7 8 9 10 11 12 13 14 15 16 17 18 19 20 21 22 23 24 25 26 27 28 29 30 31 32 33 34 35 36 37 38 39 40 41 42 43 44 45 46 47 48 49 50
000
AXUS43 KLBF 260510
MISLBF


WESTERN AND NORTH CENTRAL NEBRASKA HOURLY WEATHER ROUNDUP
NATIONAL WEATHER SERVICE NORTH PLATTE NE
1100 PM CST TUE NOV 25 2014

***STATIONS NOT REPORTING VARIABLES SUCH AS SKY/WEATHER OR
PRESSURE ARE PROVIDED BY THE NEBRASKA DEPARTMENT OF
ROADS...RAWS...AND APRS NETWORKS...AND ARE NOT UNDER
NATIONAL WEATHER SERVICE QUALITY CONTROL***

...OBSERVATIONS IN AND NEAR THE EASTERN PANHANDLE OF NEBRASKA...

CITY           SKY/WX    TMP DP  RH WIND       PRES   REMARKS
PINE RIDGE     CLOUDY    34  26  72 NW8       29.98R WCI  27
CHADRON        CLOUDY    43  24  47 NW24G35   30.01R
ALLIANCE       CLOUDY    34  21  59 NW20G29   29.97R WCI  23
SIDNEY         CLOUDY    32  30  92 NW15      30.04R WCI  22
WHITECLAY        N/A     32  25  73 W8          N/A  WCI  25
CRESCENT LAKE    N/A     34  25  68 NW12G25     N/A  WCI  25
LISCO            N/A     36  23  58 W16         N/A  WCI  26
BIG SPRINGS      N/A     35  32  90 NW9         N/A  WCI  28
$$

...OBSERVATIONS IN NORTH CENTRAL NEBRASKA...

CITY           SKY/WX    TMP DP  RH WIND       PRES   REMARKS
VALENTINE      CLOUDY    37  25  61 NW16G23   29.90R WCI  28
THEDFORD       CLOUDY    37  28  70 NW9       29.92R WCI  30
AINSWORTH      MOCLDY    35  28  73 NW17      29.88R WCI  25
O`NEILL        PTCLDY    36  33  90 W13       29.83S WCI  27
ORD            PTCLDY    38  30  73 NW15      29.87R WCI  29
BROKEN BOW     CLOUDY    39  30  70 NW18      29.90R WCI  30
BROWNLEE         N/A     34  27  75 W13         N/A  WCI  25
SPRINGVIEW       N/A     36  30  78 W12G18      N/A  WCI  28
BREWSTER         N/A     35  29  76 W13         N/A  WCI  27
SARGENT          N/A     36  29  75 NW5G12      N/A  WCI  32
COMSTOCK         N/A     40  30  67 NW15        N/A  WCI  32
CHAMBERS         N/A     36  31  82 W9          N/A  WCI  29
EWING            N/A     37  34  88 CALM        N/A
$$

...OBSERVATIONS IN SOUTHWEST NEBRASKA AND FAR NORTHEAST COLORADO...

CITY           SKY/WX    TMP DP  RH WIND       PRES   REMARKS
WRAY           DRIZZLE   35  35 100 W9        30.05R WCI  28
HOLYOKE        LGT RAIN  36  32  87 NW12G21   30.03R WCI  27
IMPERIAL       CLOUDY    39  30  70 NW24      30.00R WCI  28
OGALLALA       LGT RAIN  38  34  86 NW10      29.99R WCI  30
NORTH PLATTE   CLOUDY    38  31  76 NW13      29.95R WCI  30
MCCOOK         CLOUDY    42  30  62 NW10      29.97R
LEXINGTON      CLOUDY    40  31  67 NW15      29.92R WCI  32
PAXTON           N/A     40  33  75 W8          N/A  WCI  34
BRADY            N/A     38  30  73 S3          N/A
GOTHENBURG       N/A     39  28  65 NW12        N/A  WCI  32
CALLAWAY         N/A     37  29  74 NW12        N/A  WCI  29
$$

...NORTH PLATTE AREA...

CITY           SKY/WX    TMP DP  RH WIND       PRES   REMARKS
AIRPORT        CLOUDY    38  31  76 NW13      29.95R WCI  30
$$

...SOME WEATHER OBSERVATIONS FROM AROUND THE REGION...

CITY           SKY/WX    TMP DP  RH WIND       PRES   REMARKS
DENVER         FLURRIES  31  27  85 NE18      30.05R WCI  19
LARAMIE        FLURRIES  25  23  92 N14       30.01R WCI  13
CHEYENNE       CLOUDY    27  22  81 N25G33    30.02R HAZE    WCI  12
SCOTTSBLUFF    CLOUDY    32  31  96 NW15      30.06R WCI  22
RAPID CITY     MOCLDY    32  23  69 NW31G41   29.98R WCI  17
PIERRE         CLOUDY    37  30  75 NW26G33   29.84R WCI  25
WINNER         CLOUDY    38  29  70 NW18G28   29.85R WCI  28
SIOUX FALLS    LGT SNOW  32  30  92 SE9       29.81S FOG     WCI  24
OMAHA          CLOUDY    39  26  59 S12       29.87F WCI  32
GRAND ISLAND   CLOUDY    39  30  70 NW15      29.88R WCI  31
KANSAS CITY    CLOUDY    39  22  50 S14       29.99F WCI  31
WICHITA        CLOUDY    42  27  55 S13       29.96F
HAYS           CLOUDY    39  16  38 CALM      29.92R
LIBERAL        CLEAR     30  14  51 W9        29.95R WCI  22
GOODLAND       MIX PCPN  36  34  92 N14       30.03R WCI  27
$$



USA.gov is the U.S. government's official web portal to all federal, state and local government web resources and services.